Location: McFarlands Corners
(41.4117°N, 81.3382°W)
Time: 17:35:32
(UTC+00:00)

Tiros 1 - All Passes

Search period start: 16 February 2026 00:00
Search period end: 26 February 2026 00:00
Orbit: 618 x 649 km, 48.4° (Epoch: 15 February)

Date Brightness Start Highest point End Pass type
(mag) Time Alt. Az. Time Alt. Az. Time Alt. Az.
16 Feb - 14:10:38 10° SW 14:15:06 53° SE 14:19:34 10° ENE daylight
16 Feb - 15:52:38 10° W 15:57:05 47° NNW 16:01:30 10° ENE daylight
16 Feb - 17:35:28 10° WNW 17:39:39 34° N 17:43:48 10° ENE daylight
16 Feb - 19:17:36 10° WNW 19:22:07 59° NNE 19:26:37 10° ESE daylight
16 Feb - 20:59:43 10° WNW 21:03:51 35° SW 21:07:59 10° SSE daylight
17 Feb - 12:51:44 10° S 12:55:13 21° SE 12:58:42 10° E daylight
17 Feb - 14:32:06 10° WSW 14:36:43 85° NNW 14:41:18 10° ENE daylight
17 Feb - 16:14:45 10° WNW 16:19:00 36° N 16:23:14 10° ENE daylight
17 Feb - 17:57:20 10° WNW 18:01:37 38° N 18:05:53 10° E daylight
17 Feb - 19:39:16 10° WNW 19:43:50 83° SSW 19:48:23 10° ESE daylight
17 Feb - 21:22:13 10° W 21:25:11 17° SW 21:28:10 10° S daylight
18 Feb - 13:12:14 10° SSW 13:16:36 43° SE 13:20:57 10° ENE daylight
18 Feb - 14:53:58 10° W 14:58:28 53° NNW 15:02:57 10° ENE daylight
18 Feb - 16:36:49 10° WNW 16:40:59 33° N 16:45:09 10° ENE daylight
18 Feb - 18:19:03 10° WNW 18:23:31 52° NNE 18:27:58 10° E daylight
18 Feb - 20:01:04 10° WNW 20:05:23 43° SW 20:09:41 10° SSE daylight
19 Feb - 11:53:46 10° S 11:56:46 17° SE 11:59:48 10° E daylight
19 Feb - 13:33:32 10° SW 13:38:09 82° SSE 13:42:44 10° ENE daylight
19 Feb - 15:16:02 10° W 15:20:21 39° NNW 15:24:39 10° ENE daylight
19 Feb - 16:58:44 10° WNW 17:02:59 36° N 17:07:12 10° ENE daylight
19 Feb - 18:40:42 10° WNW 18:45:17 84° NNE 18:49:50 10° ESE daylight
19 Feb - 20:23:17 10° W 20:26:45 22° SW 20:30:12 10° S daylight
20 Feb - 12:13:54 10° SSW 12:18:06 35° SE 12:22:17 10° ENE daylight
20 Feb - 13:55:18 10° WSW 13:59:51 60° NNW 14:04:24 10° ENE daylight
20 Feb - 15:38:08 10° WNW 15:42:19 34° N 15:46:29 10° ENE daylight
20 Feb - 17:20:29 10° WNW 17:24:54 47° NNE 17:29:18 10° E daylight
20 Feb - 19:02:26 10° WNW 19:06:52 53° SW 19:11:17 10° SE daylight
21 Feb - 10:56:01 10° SSE 10:58:20 14° SE 11:00:40 10° E visible
21 Feb - 12:35:01 10° SW 12:39:36 68° SSE 12:44:10 10° ENE daylight
21 Feb - 14:17:19 10° W 14:21:42 42° NNW 14:26:04 10° ENE daylight
21 Feb - 16:00:06 10° WNW 16:04:19 35° N 16:08:31 10° ENE daylight
21 Feb - 17:42:08 10° WNW 17:46:42 72° NNE 17:51:14 10° ESE daylight
21 Feb - 19:24:28 10° W 19:28:18 27° SW 19:32:05 10° SSE daylight
22 Feb - 11:15:38 10° SSW 11:19:37 28° SE 11:23:34 10° ENE visible
22 Feb - 12:56:39 10° WSW 13:01:15 70° NNW 13:05:50 10° ENE daylight
22 Feb - 14:39:25 10° WNW 14:43:39 35° N 14:47:52 10° ENE daylight
22 Feb - 16:21:53 10° WNW 16:26:16 42° NNE 16:30:37 10° E daylight
22 Feb - 18:03:49 10° WNW 18:08:20 65° SW 18:12:50 10° SE daylight
22 Feb - 19:47:36 10° WSW 19:49:33 13° SW 19:51:29 10° SSW daylight
23 Feb - 09:58:54 10° SE 09:59:55 11° SE 10:00:55 10° ESE visible
23 Feb - 11:36:31 10° SW 11:41:04 56° SE 11:45:34 10° ENE visible
23 Feb - 13:18:36 10° W 13:23:04 46° NNW 13:27:29 10° ENE daylight
23 Feb - 15:01:26 10° WNW 15:05:39 34° N 15:09:50 10° ENE daylight
23 Feb - 16:43:33 10° WNW 16:48:06 62° NNE 16:52:36 10° ESE daylight
23 Feb - 18:25:44 10° WNW 18:29:49 33° SW 18:33:52 10° SSE daylight
24 Feb - 10:17:28 10° S 10:21:08 23° SE 10:24:47 10° E visible
24 Feb - 11:58:00 10° WSW 12:02:39 81° NNW 12:07:17 10° ENE daylight
24 Feb - 13:40:42 10° WNW 13:44:59 36° N 13:49:14 10° ENE daylight
24 Feb - 15:23:16 10° WNW 15:27:36 39° NNE 15:31:54 10° E daylight
24 Feb - 17:05:13 10° WNW 17:09:48 79° SSW 17:14:20 10° SE daylight
24 Feb - 18:48:19 10° W 18:51:06 16° SW 18:53:53 10° S daylight
25 Feb - 10:38:04 10° SW 10:42:31 46° SE 10:46:56 10° ENE visible
25 Feb - 12:19:53 10° W 12:24:25 51° NNW 12:28:55 10° ENE daylight
25 Feb - 14:02:45 10° WNW 14:06:58 34° N 14:11:09 10° ENE daylight
25 Feb - 15:44:57 10° WNW 15:49:28 54° NNE 15:53:57 10° E daylight
25 Feb - 17:27:01 10° WNW 17:31:18 41° SW 17:35:34 10° SSE daylight
